EN

Hourly Weather Almussafes

Today, 23 January, Saturday

Time Temperature Precipitation Wind Pressure Humidity
00:00 +8°C° 0 mm 6 mps 757 mmHg 68%
01:00 +8°C° 0 mm 6 mps 757 mmHg 68%
02:00 +8°C° 0 mm 6 mps 757 mmHg 67%
03:00 +8°C° 0 mm 6 mps 757 mmHg 67%
04:00 +8°C° 0 mm 7 mps 757 mmHg 66%
05:00 +8°C° 0 mm 7 mps 757 mmHg 65%
06:00 +8°C° 0 mm 7 mps 757 mmHg 64%
07:00 +9°C° 0 mm 8 mps 757 mmHg 63%
08:00 +9°C° 0 mm 8 mps 757 mmHg 62%
09:00 +10°C° 0 mm 8 mps 757 mmHg 62%
10:00 +11°C° 0 mm 9 mps 757 mmHg 58%
11:00 +12°C° 0 mm 9 mps 757 mmHg 54%
12:00 +13°C° 0 mm 10 mps 757 mmHg 51%
13:00 +13°C° 0 mm 10 mps 756 mmHg 51%
14:00 +13°C° 0 mm 10 mps 756 mmHg 52%
15:00 +13°C° 0 mm 10 mps 755 mmHg 53%
16:00 +13°C° 0 mm 8 mps 755 mmHg 57%
17:00 +12°C° 0 mm 7 mps 754 mmHg 61%
18:00 +11°C° 0 mm 6 mps 753 mmHg 65%
19:00 +11°C° 0 mm 6 mps 753 mmHg 66%
20:00 +11°C° 0 mm 6 mps 752 mmHg 68%
21:00 +11°C° 0 mm 6 mps 752 mmHg 69%
22:00 +12°C° 0 mm 7 mps 751 mmHg 69%
23:00 +12°C° 0 mm 8 mps 751 mmHg 69%

Tomorrow, 24 January, Sunday

Time Temperature Precipitation Wind Pressure Humidity
00:00 +13°C° 0 mm 9 mps 750 mmHg 69%
01:00 +14°C° 0.1 mm 10 mps 750 mmHg 66%
02:00 +14°C° 0.1 mm 12 mps 750 mmHg 63%
03:00 +15°C° 0.1 mm 13 mps 749 mmHg 61%
04:00 +14°C° 0 mm 13 mps 750 mmHg 59%
05:00 +13°C° 0 mm 13 mps 750 mmHg 57%
06:00 +12°C° 0 mm 13 mps 751 mmHg 55%
07:00 +12°C° 0 mm 12 mps 752 mmHg 55%
08:00 +12°C° 0 mm 11 mps 753 mmHg 56%
09:00 +12°C° 0 mm 10 mps 754 mmHg 57%
10:00 +13°C° 0 mm 9 mps 754 mmHg 52%
11:00 +15°C° 0 mm 7 mps 755 mmHg 47%
12:00 +16°C° 0 mm 6 mps 755 mmHg 43%
13:00 +16°C° 0 mm 7 mps 755 mmHg 42%
14:00 +16°C° 0 mm 7 mps 755 mmHg 42%
15:00 +16°C° 0 mm 8 mps 755 mmHg 42%
16:00 +15°C° 0 mm 7 mps 755 mmHg 46%
17:00 +14°C° 0 mm 7 mps 756 mmHg 51%
18:00 +13°C° 0 mm 6 mps 756 mmHg 56%
19:00 +11°C° 0 mm 6 mps 757 mmHg 58%
20:00 +11°C° 0 mm 6 mps 757 mmHg 59%
21:00 +11°C° 0 mm 6 mps 758 mmHg 61%
22:00 +10°C° 0 mm 6 mps 758 mmHg 62%
23:00 +10°C° 0 mm 5 mps 758 mmHg 63%

Day after tomorrow, 25 January, Monday

Time Temperature Precipitation Wind Pressure Humidity
00:00 +11°C° 0 mm 4 mps 758 mmHg 64%
01:00 +10°C° 0 mm 4 mps 758 mmHg 64%
02:00 +10°C° 0 mm 4 mps 758 mmHg 64%
03:00 +10°C° 0 mm 3 mps 759 mmHg 64%
04:00 +10°C° 0 mm 3 mps 759 mmHg 65%
05:00 +10°C° 0 mm 3 mps 759 mmHg 66%
06:00 +10°C° 0 mm 3 mps 759 mmHg 68%
07:00 +10°C° 0 mm 3 mps 760 mmHg 68%
08:00 +11°C° 0 mm 3 mps 760 mmHg 68%
09:00 +11°C° 0 mm 4 mps 761 mmHg 68%
10:00 +13°C° 0 mm 4 mps 761 mmHg 62%
11:00 +14°C° 0 mm 4 mps 761 mmHg 56%
12:00 +16°C° 0 mm 3 mps 761 mmHg 50%
13:00 +17°C° 0 mm 4 mps 761 mmHg 50%
14:00 +17°C° 0 mm 4 mps 760 mmHg 50%
15:00 +17°C° 0 mm 4 mps 760 mmHg 50%
16:00 +14°C° 0 mm 3 mps 761 mmHg 54%
17:00 +13°C° 0 mm 3 mps 761 mmHg 59%
18:00 +11°C° 0 mm 3 mps 761 mmHg 63%
19:00 +11°C° 0 mm 3 mps 762 mmHg 66%
20:00 +10°C° 0 mm 3 mps 762 mmHg 69%
21:00 +10°C° 0 mm 3 mps 763 mmHg 73%
22:00 +9°C° 0 mm 3 mps 763 mmHg 74%
23:00 +9°C° 0 mm 2 mps 763 mmHg 76%

26 January, Tuesday

Time Temperature Precipitation Wind Pressure Humidity
00:00 +9°C° 0 mm 2 mps 763 mmHg 78%
01:00 +9°C° 0 mm 3 mps 763 mmHg 78%
02:00 +9°C° 0 mm 3 mps 763 mmHg 79%
03:00 +9°C° 0 mm 3 mps 763 mmHg 79%
04:00 +9°C° 0 mm 3 mps 763 mmHg 80%
05:00 +9°C° 0 mm 3 mps 763 mmHg 80%
06:00 +9°C° 0 mm 3 mps 763 mmHg 81%
07:00 +10°C° 0 mm 3 mps 763 mmHg 78%
08:00 +11°C° 0 mm 3 mps 764 mmHg 75%
09:00 +13°C° 0 mm 3 mps 764 mmHg 72%
10:00 +15°C° 0 mm 4 mps 764 mmHg 67%
11:00 +17°C° 0 mm 5 mps 764 mmHg 61%
12:00 +20°C° 0 mm 6 mps 763 mmHg 55%
13:00 +20°C° 0 mm 6 mps 763 mmHg 56%
14:00 +20°C° 0 mm 7 mps 763 mmHg 56%
15:00 +20°C° 0 mm 7 mps 762 mmHg 57%
16:00 +19°C° 0 mm 6 mps 762 mmHg 60%
17:00 +17°C° 0 mm 5 mps 763 mmHg 64%
18:00 +17°C° 0 mm 4 mps 763 mmHg 67%
19:00 +15°C° 0 mm 4 mps 763 mmHg 70%
20:00 +15°C° 0 mm 4 mps 763 mmHg 73%
21:00 +14°C° 0 mm 4 mps 764 mmHg 75%
22:00 +14°C° 0 mm 4 mps 764 mmHg 77%
23:00 +14°C° 0 mm 4 mps 764 mmHg 79%

27 January, Wednesday

Time Temperature Precipitation Wind Pressure Humidity
00:00 +14°C° 0 mm 3 mps 764 mmHg 81%
01:00 +14°C° 0 mm 4 mps 764 mmHg 81%
02:00 +14°C° 0 mm 4 mps 764 mmHg 81%
03:00 +14°C° 0 mm 4 mps 764 mmHg 80%
04:00 +14°C° 0 mm 4 mps 764 mmHg 82%
05:00 +13°C° 0 mm 3 mps 764 mmHg 83%
06:00 +13°C° 0 mm 3 mps 764 mmHg 84%
07:00 +14°C° 0 mm 3 mps 764 mmHg 81%
08:00 +16°C° 0 mm 3 mps 764 mmHg 78%
09:00 +17°C° 0 mm 3 mps 765 mmHg 75%
10:00 +18°C° 0 mm 3 mps 765 mmHg 68%
11:00 +20°C° 0 mm 3 mps 764 mmHg 61%
12:00 +22°C° 0 mm 3 mps 764 mmHg 54%
13:00 +22°C° 0 mm 3 mps 764 mmHg 53%
14:00 +22°C° 0 mm 3 mps 763 mmHg 52%
15:00 +22°C° 0 mm 3 mps 763 mmHg 51%
16:00 +20°C° 0 mm 3 mps 763 mmHg 58%
17:00 +18°C° 0 mm 3 mps 763 mmHg 66%
18:00 +16°C° 0 mm 3 mps 763 mmHg 73%
19:00 +16°C° 0 mm 3 mps 764 mmHg 74%
20:00 +15°C° 0 mm 2 mps 764 mmHg 76%
21:00 +15°C° 0 mm 2 mps 764 mmHg 77%
22:00 +14°C° 0 mm 2 mps 765 mmHg 77%
23:00 +14°C° 0 mm 2 mps 765 mmHg 77%

28 January, Thursday

Time Temperature Precipitation Wind Pressure Humidity
00:00 +13°C° 0 mm 3 mps 765 mmHg 78%
01:00 +13°C° 0 mm 3 mps 765 mmHg 78%
02:00 +12°C° 0 mm 3 mps 765 mmHg 77%
03:00 +12°C° 0 mm 3 mps 765 mmHg 77%
04:00 +12°C° 0 mm 3 mps 765 mmHg 78%
05:00 +12°C° 0 mm 3 mps 765 mmHg 78%
06:00 +12°C° 0 mm 3 mps 765 mmHg 79%
07:00 +13°C° 0 mm 3 mps 765 mmHg 76%
08:00 +14°C° 0 mm 3 mps 765 mmHg 74%
09:00 +16°C° 0 mm 3 mps 765 mmHg 71%
10:00 +18°C° 0 mm 3 mps 765 mmHg 64%
11:00 +20°C° 0 mm 3 mps 765 mmHg 58%
12:00 +22°C° 0 mm 3 mps 765 mmHg 51%
13:00 +22°C° 0 mm 3 mps 765 mmHg 51%
14:00 +23°C° 0 mm 4 mps 764 mmHg 51%
15:00 +23°C° 0 mm 4 mps 764 mmHg 51%
16:00 +21°C° 0 mm 4 mps 764 mmHg 58%
17:00 +19°C° 0 mm 4 mps 764 mmHg 64%
18:00 +17°C° 0 mm 4 mps 764 mmHg 70%
Show more